TimeEST,TemperatureF,Dew PointF,Humidity,Sea Level PressureIn,VisibilityMPH,Wind Direction,Wind SpeedMPH,Gust SpeedMPH,PrecipitationIn,Events,Conditions,WindDirDegrees,DateUTC
12:56 AM,35.1,16.0,46,30.22,10.0,WNW,15.0,-,N/A,,Clear,290,2012-02-13 05:56:00
1:56 AM,33.1,17.1,52,30.22,10.0,WNW,11.5,-,N/A,,Clear,300,2012-02-13 06:56:00
2:56 AM,32.0,17.1,54,30.22,10.0,NW,13.8,-,N/A,,Clear,320,2012-02-13 07:56:00
3:56 AM,32.0,19.0,59,30.22,10.0,NNW,11.5,-,N/A,,Clear,330,2012-02-13 08:56:00
4:56 AM,30.0,19.0,64,30.23,10.0,North,6.9,-,N/A,,Clear,350,2012-02-13 09:56:00
5:56 AM,28.0,16.0,61,30.24,10.0,Calm,Calm,-,N/A,,Clear,0,2012-02-13 10:56:00
6:56 AM,27.0,15.1,61,30.27,10.0,NNW,4.6,-,N/A,,Clear,340,2012-02-13 11:56:00
7:56 AM,32.0,18.0,56,30.29,10.0,North,6.9,-,N/A,,Clear,350,2012-02-13 12:56:00
8:56 AM,36.0,16.0,44,30.30,10.0,North,9.2,-,N/A,,Clear,10,2012-02-13 13:56:00
9:56 AM,39.0,16.0,39,30.30,10.0,NNW,4.6,-,N/A,,Clear,330,2012-02-13 14:56:00
10:56 AM,42.1,16.0,35,30.29,10.0,NNW,4.6,-,N/A,,Clear,340,2012-02-13 15:56:00
11:56 AM,42.1,18.0,38,30.28,10.0,SSW,3.5,-,N/A,,Clear,200,2012-02-13 16:56:00
12:56 PM,43.0,19.0,38,30.26,10.0,South,10.4,-,N/A,,Clear,190,2012-02-13 17:56:00
1:56 PM,44.1,19.0,37,30.23,10.0,SSW,10.4,-,N/A,,Clear,210,2012-02-13 18:56:00
2:56 PM,43.0,19.9,40,30.21,10.0,SSW,8.1,-,N/A,,Clear,210,2012-02-13 19:56:00
3:56 PM,44.1,21.9,42,30.20,10.0,SSW,9.2,-,N/A,,Clear,210,2012-02-13 20:56:00
4:56 PM,43.0,23.0,45,30.19,10.0,WSW,5.8,-,N/A,,Clear,240,2012-02-13 21:56:00
5:56 PM,41.0,24.1,51,30.20,10.0,Calm,Calm,-,N/A,,Clear,0,2012-02-13 22:56:00
6:56 PM,41.0,27.0,57,30.21,10.0,SW,8.1,-,N/A,,Clear,230,2012-02-13 23:56:00
7:56 PM,43.0,28.9,58,30.21,10.0,SW,4.6,-,N/A,,Clear,230,2012-02-14 00:56:00
8:56 PM,37.0,28.9,73,30.20,10.0,Calm,Calm,-,N/A,,Clear,0,2012-02-14 01:56:00
9:56 PM,39.0,30.9,73,30.19,10.0,Calm,Calm,-,N/A,,Clear,0,2012-02-14 02:56:00
10:56 PM,33.1,28.0,82,30.19,10.0,Calm,Calm,-,N/A,,Clear,0,2012-02-14 03:56:00
11:56 PM,34.0,30.0,85,30.20,10.0,NNW,3.5,-,N/A,,Clear,340,2012-02-14 04:56:00